Location: Newark
(51.3318°N, 0.0053°E)
Time: 05:35:42
(UTC+00:00)

BlueWalker 3 - Pass Details

Date: 02 December 2022
Orbit: 499 x 517 km, 53.2° (Epoch: 28 January)

Event Time Altitude Azimuth Distance (km) Brightness Sun altitude
Rises 17:30:32 0° 269° (W) 2,632 7.1 -14.2°
Reaches altitude 10° 17:32:45 10° 273° (W) 1,742 5.8 -14.5°
Maximum altitude 17:36:40 66° 356° (N) 564 2.1 -15.1°
Enters shadow 17:38:27 30° 70° (ENE) 935 2.7 -15.4°
